Weather History for Laramie, WY

Change the Weather History Date:

Friday, January 2, 2015

  Actual Average Record
Temperature  
Mean Temperature 18 °F 22 °F  
Max Temperature 26 °F 33 °F 59 °F (1997)
Min Temperature 9 °F 10 °F -32 °F (1974)
Degree Days  
Heating Degree Days 47 43  
Month to date heating degree days 116 87  
Since 1 July heating degree days 3557 3760  
Cooling Degree Days 0 0  
Month to date cooling degree days 0 0  
Year to date cooling degree days 0 0  
Moisture  
Dew Point 12 °F    
Average Humidity 78    
Maximum Humidity 92    
Minimum Humidity 63    
Precipitation  
Precipitation T in 0.01 in 0.28 in (1949)
Month to date precipitation T 0.02  
Year to date precipitation T 0.02  
Sea Level Pressure  
Sea Level Pressure 30.05 in    
Wind  
Wind Speed 8 mph (SSW)    
Max Wind Speed 22 mph    
Max Gust Speed 27 mph    
Visibility 9 miles    
Events Snow    
T = Trace of Precipitation, MM = Missing Value Source: NWS Daily Summary

Daily Weather History Graph

Daily Weather History Graph

Search for Another Location

Airport:

Trip Planner

Search our weather history database for the weather conditions in past years. The results will help you decide how hot, cold, wet, or windy it might be!

Date:

Astronomy

Jan. 02, 2015 Rise Set
Actual Time 7:28 AM MST 4:44 PM MST
Civil Twilight 6:57 AM MST 5:16 PM MST
Nautical Twilight 6:22 AM MST 5:50 PM MST
Astronomical Twilight 5:49 AM MST 6:24 PM MST
Moon 3:06 PM MST (1/2) 4:57 AM MST (1/2)
Length of Visible Light 10h 18m
Length of Day
9h 16m
Waxing Gibbous, 94% of the Moon is Illuminated
Jan 2
Waxing Gibbous
Jan 4
Full
Jan 13
Last Quarter
Jan 20
New
Jan 26
First Quarter

Hourly Weather History & Observations

Time (MST) Temp. Windchill Dew Point Humidity Pressure Visibility Wind Dir Wind Speed Gust Speed Precip Events Conditions
12:53 AM 14.0 °F 8.2 °F 10.9 °F 88% 30.21 in 4.0 mi ESE 3.5 mph - 0.00 in Snow Light Snow
1:53 AM 12.9 °F 6.9 °F 10.9 °F 92% 30.21 in 2.5 mi West 3.5 mph - 0.00 in Snow Light Snow
2:02 AM 12.9 °F 5.2 °F 10.0 °F 88% 29.99 in 3.0 mi WSW 4.6 mph - 0.00 in Snow Light Snow
2:53 AM 12.9 °F 2.6 °F 10.0 °F 88% 30.22 in 6.0 mi WSW 6.9 mph - 0.00 in Snow Light Snow
3:53 AM 12.0 °F 2.7 °F 10.0 °F 92% 30.22 in 9.0 mi WSW 5.8 mph - 0.00 in   Overcast
4:04 AM 12.9 °F 5.2 °F 10.0 °F 88% 29.98 in 10.0 mi WSW 4.6 mph - N/A   Overcast
4:12 AM 12.9 °F 6.9 °F 10.0 °F 88% 29.97 in 10.0 mi WSW 3.5 mph - N/A   Overcast
4:53 AM 12.9 °F 6.9 °F 10.0 °F 88% 30.18 in 10.0 mi WSW 3.5 mph - N/A   Overcast
5:53 AM 12.0 °F 4.1 °F 10.0 °F 92% 30.17 in 10.0 mi SE 4.6 mph - 0.00 in   Overcast
6:53 AM 12.0 °F 4.1 °F 10.0 °F 92% 30.17 in 10.0 mi SSE 4.6 mph - N/A   Overcast
7:53 AM 15.1 °F 7.7 °F 12.9 °F 91% 30.15 in 10.0 mi SE 4.6 mph - N/A   Overcast
8:53 AM 14.0 °F 6.5 °F 10.9 °F 88% 30.17 in 10.0 mi West 4.6 mph - N/A   Overcast
9:53 AM 18.0 °F 12.7 °F 14.0 °F 84% 30.13 in 10.0 mi South 3.5 mph - N/A   Overcast
10:53 AM 19.9 °F 12.1 °F 15.1 °F 81% 30.09 in 10.0 mi SSE 5.8 mph - N/A   Overcast
11:53 AM 23.0 °F 17.0 °F 17.1 °F 78% 30.04 in 10.0 mi South 4.6 mph - N/A   Overcast
12:53 PM 25.0 °F 17.1 °F 17.1 °F 72% 29.98 in 10.0 mi WSW 6.9 mph - N/A   Overcast
1:53 PM 26.1 °F 12.7 °F 16.0 °F 66% 29.96 in 10.0 mi SW 18.4 mph - N/A   Clear
2:53 PM 25.0 °F 13.6 °F 16.0 °F 69% 29.96 in 10.0 mi SW 12.7 mph - N/A   Clear
3:53 PM 21.9 °F 10.4 °F 14.0 °F 72% 29.98 in 10.0 mi SW 11.5 mph - N/A   Clear
4:53 PM 17.1 °F 5.0 °F 10.0 °F 74% 29.99 in 10.0 mi SSW 10.4 mph - N/A   Clear
5:53 PM 21.0 °F 6.2 °F 12.0 °F 68% 29.95 in 10.0 mi SW 18.4 mph - N/A   Clear
6:53 PM 19.0 °F 4.5 °F 10.9 °F 71% 29.96 in 10.0 mi SW 16.1 mph - N/A   Clear
7:53 PM 19.9 °F 6.2 °F 10.9 °F 68% 29.94 in 10.0 mi SW 15.0 mph - N/A   Clear
8:53 PM 18.0 °F 4.8 °F 10.0 °F 71% 29.94 in 10.0 mi WSW 12.7 mph - N/A   Clear
9:53 PM 19.0 °F 7.5 °F 10.9 °F 71% 29.91 in 10.0 mi West 10.4 mph - N/A   Clear
10:53 PM 10.9 °F 0.2 °F 7.0 °F 84% 29.94 in 10.0 mi East 6.9 mph - N/A   Clear
11:53 PM 15.1 °F 7.7 °F 9.0 °F 77% 29.91 in 10.0 mi South 4.6 mph - N/A   Clear